Regional Weather Roundup
Issued by NWS

Home | Current Version | Previous Version | Text Only | Print | Product List | Glossary On
Versions: 1 2 3 4 5 6 7 8 9 10 11 12 13 14 15 16 17 18 19 20 21 22 23 24 25 26 27 28 29 30 31 32 33 34 35 36 37 38 39 40 41 42 43 44 45 46 47 48 49 50
000
ASUS45 KTFX 150710
RWRMT
MONTANA REGIONAL WEATHER ROUNDUP
NATIONAL WEATHER SERVICE GREAT FALLS MT
1200 AM MST FRI DEC 15 2017

NOTE: "FAIR" INDICATES FEW OR NO CLOUDS BELOW 12000 FEET WITH NO
SIGNIFICANT WEATHER AND/OR OBSTRUCTIONS TO VISIBILITY.

MTZ001>007-043-150800-
WEST OF THE DIVIDE

CITY           SKY/WX    TMP DP  RH WIND       PRES   REMARKS
KALISPELL      CLOUDY    28  26  92 CALM      30.29F
MISSOULA       CLOUDY    25  24  96 SE5       30.30F FOG
BUTTE          FAIR       8   5  87 VRB3      30.23F
MULLAN PASS    FAIR      27  22  81 SW7       30.17F WCI  19
ANACONDA         N/A     14  10  85 CALM      30.24S
DEER LODGE       N/A     16  14  93 CALM      30.27F VSB 0
EUREKA           N/A     25  21  86 MISG      30.30F
HAMILTON         N/A     18  16  93 CALM      30.28F
LIBBY            N/A     28  27  93 CALM      30.29F
PLAINS           N/A     29  24  81 CALM      30.29
RONAN            N/A     28  24  85 CALM      30.30R
$$

MTZ008-052>055-150800-
SOUTHWEST MONTANA

CITY           SKY/WX    TMP DP  RH WIND       PRES   REMARKS
BOZEMAN        MOCLDY     7   4  87 SW3       30.22F
DILLON         FAIR      18  12  77 S7        30.23S WCI   9
W YELLOWSTONE  FAIR       1  -2  85 CALM      30.31S
ENNIS          CLOUDY    27  18  69 S18       30.25S WCI  13
THREE FORKS      N/A      9   5  83 CALM      30.18F VSB 0
TWIN BRIDGES     N/A     13   6  73 CALM      30.19
$$

MTZ009-010-012-014-046-048-049-054-150800-
EAST SLOPES AND CENTRAL MONTANA

CITY           SKY/WX    TMP DP  RH WIND       PRES   REMARKS
CUT BANK       FAIR      40  17  39 W28G35    29.91F
GREAT FALLS    FAIR      36  18  48 SW20      30.00F WCI  25
MALMSTROM AFB  FAIR      35  19  52 SW21G29   30.00F WCI  24
HELENA         FOG       20  19  96 VRB3      30.21F VSB 1/2
BOWMANS CRNR   FAIR      29  20  67 S22       30.01F WCI  16
CHOTEAU          N/A     46  10  23 W12G21    29.97F
POWER          FAIR      34  18  51 SW17      29.97F WCI  23
RAYNESFORD     FAIR      43  14  31 SW22G30   29.99F
ULM            FAIR      37  19  47 S13       30.02F WCI  29
$$

MTZ011-013-016-021-045-047-050-051-150800-
NORTH CENTRAL MONTANA

CITY           SKY/WX    TMP DP  RH WIND       PRES   REMARKS
HAVRE          FAIR      36  21  54 SW22      29.91F WCI  25
LEWISTOWN      FAIR      34  19  54 VRB3      29.99F
N BAR RANCH    FAIR      39  14  35 NW10G16   29.98F
CHINOOK          N/A     21  19  93 CALM      29.91F
STANFORD       FAIR      36  16  44 CALM      29.97F
WINIFRED       MOCLDY    37  19  46 W10       29.94F WCI  30
$$

MTZ017>020-022>027-061-062-150800-
NORTHEAST MONTANA

CITY           SKY/WX    TMP DP  RH WIND       PRES   REMARKS
GLASGOW        FAIR      26  22  84 SE7       29.92F WCI  18
GLENDIVE       FAIR      24  21  88 S7        29.96F WCI  16
JORDAN           N/A     20  15  81 CALM      29.94F
SIDNEY         FAIR      26  22  84 S7        29.96F WCI  18
WOLF POINT     FAIR      25  21  85 CALM      29.94F
MALTA          PTCLDY    21  19  93 CALM      29.91F
PLENTYWOOD       N/A     25  21  86 CALM      29.89F
POPLAR           N/A     25  19  80 CALM      29.94F
$$

MTZ028>42-056>058-150800-
SOUTHCENTRAL AND SOUTHEAST MONTANA

CITY           SKY/WX    TMP DP  RH WIND       PRES   REMARKS
BAKER          FAIR      25  21  85 SW12      29.97F WCI  14
BILLINGS       FAIR      36  19  50 SW17      30.02F WCI  26
LIVINGSTON     FAIR      37  20  50 W26G41    30.11F WCI  25
MILES CITY     FAIR      23  20  88 SE9       29.98F WCI  13
BIG TIMBER     CLEAR     41  14  33 W40G48    30.03F
FORSYTH          N/A     27  21  80 CALM      29.98F
LAUREL           N/A     34  18  51 SW10      30.05F WCI  26
$$

REGIONAL REPORTS...DAKOTAS

CITY           SKY/WX    TMP DP  RH WIND       PRES   REMARKS
WILLISTON      FAIR      27  21  78 SW6       29.93F WCI  20
MINOT          CLOUDY    31  22  69 W7        29.92F WCI  24
DICKINSON      FAIR      26  20  77 W8        29.93F WCI  18
BEACH          FAIR      25  21  86 SW10      29.97F WCI  15
CROSBY         MOCLDY    27  25  93 S8        29.91F WCI  18
TIOGA          MOCLDY    25  25 100 W7        29.91F WCI  17
WATFORD CITY   MOCLDY    27  23  86 S5        29.94F
BISMARCK       CLOUDY    33  25  72 W7        29.96F WCI  27
GRAND FORKS    CLOUDY    19  16  88 NE9       29.98F WCI   8
FARGO          CLOUDY    20  18  92 NE5       29.97S
BUFFALO SD       N/A     24  19  81 W9        29.92F WCI  14
RAPID CITY     FAIR      14   9  80 CALM      30.04F
$$

REGIONAL REPORTS...WYOMING/IDAHO/WASHINGTON

CITY           SKY/WX    TMP DP  RH WIND       PRES   REMARKS
GILLETTE       FAIR      28  17  63 SW15      30.04F WCI  16
SHERIDAN       FAIR      22  15  75 CALM      30.03F
BUFFALO WY     FAIR      32   4  30 SW5       30.03F
CODY           FAIR      21  15  78 NE8       30.10R WCI  11
YELLOWSTONE LA   N/A      5   2  87 NW3       30.31S
IDAHO FALLS    CLOUDY    20  19  96 NE5       30.40F FOG
SALMON         CLOUDY    31  24  75 S12       30.39F WCI  22
BOISE          CLOUDY    27  24  89 S6        30.45F WCI  20
SPOKANE        FRZ DRZL  28  28 100 S3        30.32F
$$

REGIONAL REPORTS...ALBERTA

CITY           SKY/WX    TMP DP  RH WIND       PRES   REMARKS
EDMONTON       MOCLDY    36  23  60 SW7       29.72S WCI  30
CALGARY        MOCLDY    34  16  47 S6        29.80F WCI  29
LETHBRIDGE     CLEAR     41  18  38 SW21G26   29.86F
MEDICINE HAT   CLOUDY    34  23  64 SW12      29.84F WCI  25
$$

REGIONAL REPORTS...SASKATCHEWAN

CITY           SKY/WX    TMP DP  RH WIND       PRES   REMARKS
SWIFT CURRENT  MOCLDY    30  23  74 SW15      29.78F WCI  19
REGINA         CLOUDY    25  23  93 S7        29.83F WCI  17
SASKATOON      CLOUDY    30  27  86 S6        29.74F WCI  24
$$



USA.gov is the U.S. government's official web portal to all federal, state and local government web resources and services.